Regional Weather Roundup
Issued by NWS Memphis, TN

Home | Current Version | Previous Version | Text Only | Print | Product List | Glossary On
Versions: 1 2 3 4 5 6 7 8 9 10 11 12 13 14 15 16 17 18 19 20 21 22 23 24 25 26 27 28 29 30 31 32 33 34 35 36 37 38 39 40 41 42 43 44 45 46 47 48 49 50
000
ASUS44 KMEG 182210
RWRMEG
MEMPHIS CWA HOURLY WEATHER ROUNDUP
NATIONAL WEATHER SERVICE MEMPHIS TN
500 PM CDT THU SEP 18 2014

...WEST TENNESSEE...

CITY           SKY/WX    TMP DP  RH WIND       PRES   REMARKS
MEMPHIS INTL   PTSUNNY   81  68  64 NE8       29.92S
NWS MEMPHIS      N/A     77 N/A N/A MISG        N/A
JACKSON        PTSUNNY   74  63  68 E8        29.95S
LEXINGTON      CLOUDY    72  63  73 CALM      29.95S
SAVANNAH       PTSUNNY   73  70  88 NE5       29.95R
DYERSBURG      PTSUNNY   72  57  60 E6        29.97S
UNION CITY     SUNNY     73  59  60 E5        29.96S
PARIS          SUNNY     72  57  60 NE9       29.98S
HUNTINGDON     PTSUNNY   71  59  66 NE7       29.97S


...EASTERN ARKANSAS...

CITY           SKY/WX    TMP DP  RH WIND       PRES   REMARKS
JONESBORO      CLOUDY    71  63  75 NE8       29.95S
WEST MEMPHIS   PTSUNNY   79  70  74 NE8       29.90S
BATESVILLE     CLOUDY    72  64  78 N7        29.97R
NEWPORT        CLOUDY    73  65  76 N8        29.96S
WALNUT RIDGE   PTSUNNY   70  63  78 NE8       29.96S
BLYTHEVILLE    PTSUNNY   75  64  68 NE9       29.96S
SEARCY         CLOUDY    77  67  71 N12       29.94S
STUTTGART      CLOUDY    81  70  69 N12       29.92S
PINE BLUFF     MOSUNNY   74  68  81 E9        29.92R
MONTICELLO     CLOUDY    81  67  62 CALM      29.88R


...NORTH MISSISSIPPI...

CITY           SKY/WX    TMP DP  RH WIND       PRES   REMARKS
TUPELO         SUNNY     85  66  53 VRB6      29.90R
OXFORD         SUNNY     79  68  69 E3        29.92R
OLIVE BRANCH   PTSUNNY   77  72  83 NE10      29.92S
CLARKSDALE     MOSUNNY   72  70  94 CALM      29.94R
CORINTH        SUNNY     75  64  69 NE8       29.93S
GRENADA        CLOUDY    79  70  73 SE9G20    29.90R
GREENWOOD      CLOUDY    76  68  76 CALM      29.91R
COLUMBUS       MOSUNNY   85  65  52 E3        29.89R
STARKVILLE     FAIR      81  68  65 CALM      29.90R
GOLDEN TRIANGL MOSUNNY   84  66  54 S7        29.90R


...SOUTHEAST MISSOURI...

CITY           SKY/WX    TMP DP  RH WIND       PRES   REMARKS
WEST PLAINS    CLOUDY    67  60  78 E5        30.02F
POPLAR BLUFF   MOSUNNY   75  57  53 E6        29.96S
CAPE GIRARDEAU PTSUNNY   75  59  57 E8        29.98F


...NORTHWEST ALABAMA...

CITY           SKY/WX    TMP DP  RH WIND       PRES   REMARKS
MUSCLE SHOALS  LGT RAIN  76  65  68 CALM      29.93F


...MIDDLE TENNESSEE...

CITY           SKY/WX    TMP DP  RH WIND       PRES   REMARKS
NASHVILLE      CLOUDY    75  54  47 E6        29.98F
CLARKSVILLE    PTSUNNY   76  55  48 E7        29.97F
DICKSON        PTSUNNY   72  57  60 E3        29.98F
COLUMBIA       SUNNY     77  61  57 VRB5      29.95R
LEWISBURG      CLOUDY    77  59  53 NE5       29.95F


...WESTERN KENTUCKY...

CITY           SKY/WX    TMP DP  RH WIND       PRES   REMARKS
PADUCAH        PTSUNNY   78  57  48 NE8       29.97S
FORT CAMPBELL  PTSUNNY   75  58  55 NE9       29.97S


...CENTRAL ARKANSAS...

CITY           SKY/WX    TMP DP  RH WIND       PRES   REMARKS
LITTLE ROCK    PTSUNNY   80  67  64 NE10      29.92F


SKY/WX REPORTED AS FAIR MEANS FEW OR NO CLOUDS BELOW
12 THOUSAND FEET.




USA.gov is the U.S. government's official web portal to all federal, state and local government web resources and services.